SCP
0 0 0 0 0 0 0 0 0 0 0 0 0 0 0 0 0 0 0 0 0 0 0 0 0 0 0 0 0 0 0 0 0 0 0 0 0 0 0 0 0 0 0
0 0 0 0 0 0 0 0 0 0 0 0 0 0 0 0 0 0 0 0 0 0 0 0 0 0 0 0 0 0 0 0 0 0 0 0 0 0 0 0 0 0 0
0 0 0 0 0 0 0 0 0 0 0 0 0 0 0 0 0 0 0 0 0 0 0 0 0 0 0 0 0 0 0 0 0 0 0 0 0 0 0 0 0 0 0
0 0 0 0 0 0 0 0 0 0 0 0 0 0 0 0 0 0 0 0 0 0 0 0 0 0 0 0 0 0 0 0 0 0 0 0 0 0 0 0 0 0 0
0 0 0 0 0 0 0 0 0 0 0 0 0 0 0 0 0 0 0 0 0 0 0 0 0 0 0 0 0 0 0 0 0 0 0 0 0 0 0 0 0 0 0
0 0 0 0 0 0 0 0 0 0 0 0 0 0 0 0 0 0 0 0 0 0 0 0 0 0 0 0 0 0 0 0 0 0 0 0 0 0 0 0 0 0 0
0 0 0 0 0 0 0 0 0 0 0 0 0 0 0 0 0 0 0 0 0 0 0 0 0 0 0 0 0 0 0 0 0 0 0 0 0 0 0 0 0 0 0
0 0 0 0 0 0 0 0 0 0 0 0 0 0 0 0 0 0 0 0 0 0 0 0 0 0 0 0 0 0 0 0 0 0 0 0 0 0 0 0 0 0 0
0 0 0 0 0 0 0 0 0 0 0 0 0 0 0 0 0 0 0 0 0 0 0 0 0 0 0 0 0 0 0 0 0 0 0 0 0 0 0 0 0 0 0
0 0 0 0 0 0 0 0 0 0 0 0 0 0 0 0 0 0 0 0 0 0 0 0 0 0 0 0 0 0 0 0 0 0 0 0 0 0 0 0 0 0 0
0 0 0 0 0 0 0 0 0 0 0 0 0 0 0 0 0 0 0 0 0 0 0 0 0 0 0 0 0 0 0 0 0 0 0 0 0 0 0 0 0 0 0
0 0 0 0 0 0 0 0 0 0 0 0 0 0 0 -0 0 0 0 0 0 0 0 0 0 0 0 0 0 0 0 0 0 0 0 0 0 0 0 0 0 0 0
0 0 0 0 0 0 0 0 0 0 0 0 0 0 -0 -0 0 0 0 0 0 0 0 0 0 0 0 0 0 0 0 0 0 0 0 0 0 0 0 0 0 0 0
0 0 0 0 0 0 0 0 0 0 -0 -0 -0 -0 -0 0 0 0 0 0 0 0 0 0 0 0 0 0 0 0 0 0 0 0 0 0 0 0 0 0 0 0 0
0 0 0 0 0 0 0 0 -0 -0 -0 -0 -0 -0 0 0 -0 -0 -0 -0 0 0 0 0 0 0 0 0 0 0 0 0 0 0 0 0 0 0 0 0 0 0 0
0 0 0 0 0 0 0 0 0 0 0 0 0 0 0 -0 -0 0 0 0 0 0 0 0 0 0 0 0 0 0 0 0 0 0 0 0 0 0 0 0 0 0 0
0 0 0 0 0 0 0 0 0 0 0 0 0 0 0 0 0 0 0 0 0 0 0 0 0 0 0 0 0 0 0 0 0 0 0 0 0 0 0 0 0 0 0
0 0 0 0 0 0 0 0 0 0 0 0 0 0 0 0 0 0 0 0 0 0 0 0 0 0 0 0 0 0 0 0 0 0 0 0 0 0 0 0 0 0 0
0 0 0 0 0 0 0 0 0 0 0 0 0 0 0 0 0 0 0 0 0 0 0 0 0 0 0 0 0 0 0 0 0 0 0 0 0 0 0 0 0 0 0
0 0 0 0 0 0 0 0 0 0 0 0 0 0 0 0 0 0 0 0 0 0 0 0 0 0 0 0 0 0 0 0 0 0 0 0 0 0 0 0 0 0 0
0 0 0 0 0 0 0 0 0 0 0 0 0 0 0 0 0 0 0 0 0 0 0 0 0 0 0 0 0 0 0 0 0 0 0 0 0 0 0 0 0 0 0
0 0 0 0 0 0 0 0 0 0 0 0 0 0 0 0 0 0 0 0 0 0 0 0 0 0 0 0 0 0 0 0 0 0 0 0 0 0 0 0 0 0 0
0 0 0 0 0 0 0 0 0 0 0 0 0 0 0 0 0 0 0 0 0 0 0 0 0 0 0 0 0 0 0 0 0 0 0 0 0 0 0 0 0 0 0
0 0 0 0 0 0 0 0 0 0 0 0 0 0 0 0 0 0 0 0 0 0 0 0 0 0 0 0 0 0 0 0 0 0 0 0 0 0 0 0 0 0 0
0 0 0 0 0 0 0 0 0 0 0 0 0 0 0 0 0 0 0 0 0 0 0 0 0 0 0 0 0 0 0 0 0 0 0 0 0 0 0 0 0 0 0
0 0 0 0 0 0 0 0 0 0 0 0 0 0 0 0 0 0 0 0 0 0 0 0 0 0 0 0 0 0 0 0 0 0 0 0 0 0 0 0 0 0 0
Wind_Speed_500mb
47 39 33 22 20 25 28 36 30 24 17 13 11 12 10 15 17 22 24 25 27 29 33 36 38 40 40 41 44 44 46 48 60 74 71 73 70 66 59 59 53 55 56
43 39 39 41 34 31 30 28 20 11 4 2 6 10 15 18 20 21 24 27 29 30 33 36 38 42 43 45 45 45 47 48 56 71 72 74 72 70 71 72 66 60 60
44 41 34 30 29 27 20 15 11 5 2 7 10 12 15 16 17 20 23 27 30 33 38 41 44 47 48 48 48 49 47 49 51 61 71 68 70 69 68 67 67 65 63
35 30 29 25 23 19 16 10 7 3 4 8 12 14 18 22 24 25 26 30 34 38 42 44 46 49 51 51 52 52 54 55 55 60 67 72 71 72 71 74 77 73 72
29 36 32 33 27 20 16 11 5 2 6 11 16 20 23 27 31 34 37 39 42 41 43 45 45 49 52 54 56 53 55 57 59 62 67 71 73 74 76 77 81 81 83
37 35 30 28 22 16 9 6 6 9 13 17 21 25 29 34 39 45 48 48 49 50 51 50 48 49 51 53 54 56 55 58 60 64 67 70 69 68 70 72 76 80 82
31 29 26 22 14 7 5 6 9 12 17 23 27 32 36 41 44 46 47 47 46 47 47 47 45 45 49 50 50 51 48 49 54 55 58 57 63 62 67 71 71 75 80
28 23 17 12 6 3 6 11 16 21 26 30 33 36 38 41 43 44 44 44 42 42 44 46 46 44 48 52 55 54 51 50 51 50 53 57 57 58 58 63 67 75 80
19 13 9 5 4 9 14 18 22 24 26 29 31 32 35 39 41 45 47 46 45 44 44 46 47 47 48 52 56 60 60 56 56 60 60 62 62 60 57 62 66 67 80
12 7 6 7 11 15 19 21 22 22 23 25 27 30 33 35 38 42 45 46 45 44 42 44 48 52 56 56 60 61 64 62 60 62 60 60 60 62 58 57 59 62 66
4 1 6 12 15 15 15 14 13 14 17 21 25 29 32 35 38 42 44 46 48 50 51 49 48 51 54 55 53 56 57 55 57 61 63 63 60 58 56 51 50 55 59
4 7 11 13 11 7 7 12 17 21 26 28 30 33 36 38 38 39 41 44 48 51 53 52 51 51 54 55 55 56 57 58 62 64 65 65 65 64 63 57 53 53 56
15 15 11 7 5 7 10 16 23 27 31 35 37 39 41 42 43 45 46 45 46 50 52 55 57 58 58 59 59 60 61 62 64 66 67 68 67 68 66 62 57 54 56
20 16 11 7 5 8 15 19 23 28 33 37 41 44 46 46 46 46 46 48 51 53 56 59 57 59 61 62 63 62 60 59 60 63 65 66 69 70 70 60 61 59 61
22 16 13 11 12 15 19 22 26 31 35 38 43 46 47 46 45 48 52 56 57 55 63 63 67 68 68 66 65 64 63 62 60 60 66 71 70 65 64 66 65 61 63
28 24 21 20 20 22 24 27 30 34 39 41 42 42 44 44 46 50 53 57 61 64 66 67 66 64 64 64 64 65 63 63 63 65 66 65 67 68 64 66 66 66 64
33 31 30 28 28 30 30 32 34 38 38 38 40 41 42 44 48 52 56 60 60 62 60 59 58 58 58 59 60 61 63 61 61 61 60 60 61 60 57 60 67 66 66
41 42 41 39 38 37 37 39 41 40 37 35 36 37 40 45 50 54 57 58 54 53 54 54 56 57 58 60 60 62 62 62 62 61 61 60 56 50 53 52 60 63 62
52 52 51 49 46 44 42 43 43 40 37 37 38 40 42 48 52 55 55 54 53 53 53 54 56 59 60 61 62 63 62 63 62 63 63 62 59 57 60 57 56 57 62
55 59 58 54 51 48 47 46 43 38 35 34 38 42 45 50 53 55 55 55 55 56 57 58 59 60 61 62 64 64 65 65 65 65 65 65 63 63 63 64 62 58 58
53 60 61 58 53 50 48 44 39 34 32 33 38 43 50 52 52 52 51 51 53 55 57 58 59 61 62 63 64 65 66 67 66 66 67 67 66 68 67 65 63 57 50
53 55 58 54 51 48 43 38 33 30 30 33 37 43 47 48 49 48 48 50 50 51 53 57 59 59 60 62 63 65 68 70 70 69 70 69 67 67 66 68 66 60 52
53 52 51 48 45 41 35 31 28 28 31 36 41 44 46 47 46 48 50 51 52 52 52 54 56 58 58 59 59 61 65 67 67 67 70 71 70 69 64 65 63 60 55
48 46 44 41 36 32 28 25 24 28 34 39 42 44 45 46 48 51 52 54 54 54 54 54 55 56 58 59 61 62 63 65 65 66 64 66 67 64 60 62 64 61 58
39 37 34 32 30 27 22 22 29 30 34 39 41 43 45 47 49 51 53 53 53 53 52 51 52 55 57 59 60 60 60 60 60 61 62 61 60 61 63 63 65 63 55
28 29 30 28 25 22 22 25 25 29 35 38 39 42 45 48 50 50 50 50 50 51 50 50 51 53 54 56 58 62 63 64 67 64 59 55 56 59 58 58 60 57 53
Wind_Direction_500mb
181 195 217 240 223 194 225 241 241 243 251 265 287 309 325 327 325 325 321 319 317 312 309 308 304 300 298 296 296 296 296 294 291 295 298 301 303 303 302 299 294 291 288
162 162 162 169 189 203 199 209 210 201 222 351 338 331 334 335 329 324 321 318 317 315 311 308 307 307 307 307 305 303 302 301 300 301 304 305 306 307 305 303 300 300 297
152 161 162 171 162 173 175 155 149 158 48 353 336 329 323 320 316 317 317 313 313 310 308 305 303 301 300 301 302 302 300 299 298 298 301 304 305 307 307 306 305 299 292
161 164 159 161 159 156 154 142 128 80 346 321 314 315 316 314 309 304 301 299 300 303 302 301 303 304 305 306 305 308 310 308 307 305 304 306 309 311 310 310 309 307 302
148 154 161 150 153 151 145 134 107 18 332 320 315 310 306 302 300 300 302 303 304 304 305 308 309 309 309 310 310 309 308 310 310 307 306 307 309 311 310 309 305 305 302
153 146 150 137 137 139 118 75 23 343 324 309 301 300 303 305 306 309 311 314 316 316 316 315 316 313 311 311 311 311 313 312 309 306 304 303 302 302 302 301 302 304 307
141 140 138 132 123 102 59 2 328 313 308 310 315 318 317 316 314 314 314 314 314 313 312 310 309 310 308 308 308 308 309 306 302 301 301 301 301 303 300 298 296 295 293
142 137 123 106 86 36 349 332 328 326 325 322 319 317 314 311 309 307 306 308 311 309 308 308 311 311 310 311 311 310 312 311 308 306 304 305 304 303 297 294 294 293 291
133 122 104 76 4 342 335 330 325 324 318 311 307 306 304 304 308 309 311 312 313 313 314 317 316 318 317 316 315 315 313 310 307 306 306 308 309 309 309 302 296 295 295
117 88 38 350 340 340 334 324 311 306 305 309 314 318 324 326 322 320 320 321 320 317 320 322 323 322 321 321 320 319 316 316 315 311 309 307 307 307 309 308 306 292 294
114 32 342 341 330 305 293 293 308 329 340 347 345 340 337 332 331 330 330 330 329 330 330 329 327 321 318 319 319 318 317 315 310 310 312 311 310 308 308 305 297 293 289
273 291 276 261 263 287 337 357 2 1 356 352 353 349 344 339 335 332 330 329 328 328 327 326 323 323 320 320 320 320 319 316 316 315 315 315 315 314 312 309 301 290 285
242 244 251 274 319 351 359 358 353 351 348 345 347 345 341 337 333 333 330 326 323 324 326 326 327 327 325 323 322 320 318 317 318 318 318 316 314 312 309 308 304 296 287
243 249 260 269 301 327 338 338 338 338 338 336 338 337 335 331 324 322 325 330 330 329 327 329 328 324 323 324 324 323 323 322 321 320 319 318 319 320 319 317 312 310 299
246 253 256 267 285 299 307 319 328 325 325 328 331 329 325 324 329 335 336 335 332 329 325 323 322 323 323 324 326 328 330 329 326 322 319 318 316 314 316 320 318 314 307
239 244 251 262 273 288 301 308 312 316 320 321 318 320 327 331 331 328 326 324 323 322 322 323 325 326 327 328 329 329 329 328 327 324 323 322 319 315 308 310 315 316 312
245 251 259 269 280 286 290 298 307 306 303 305 313 321 323 321 323 323 322 322 324 322 320 322 325 327 329 329 329 329 328 326 325 326 324 323 322 318 314 308 312 312 309
255 258 264 270 276 281 289 291 289 289 295 303 310 315 320 320 320 321 322 322 320 320 325 328 329 330 330 328 328 327 326 326 326 326 325 326 324 318 311 310 309 309 307
258 262 265 269 273 277 281 282 287 293 297 304 313 318 316 317 319 320 320 323 325 326 327 327 328 329 329 328 327 326 324 324 324 324 324 324 324 320 315 309 300 306 310
264 262 264 267 271 275 276 280 284 288 294 303 308 308 308 312 314 317 322 325 326 326 328 328 328 328 327 326 324 322 320 320 321 321 321 321 320 319 316 314 311 303 304
268 262 262 265 269 270 273 278 283 289 296 303 305 310 314 319 320 322 323 323 322 323 324 324 325 325 324 323 323 321 319 319 318 318 317 318 318 316 315 314 314 310 300
267 263 262 263 266 270 273 277 282 287 294 300 306 311 314 317 321 323 322 321 320 321 322 322 322 323 323 323 322 320 319 317 316 314 313 314 315 314 315 315 316 313 308
262 260 259 261 263 265 267 269 274 285 297 305 308 310 313 317 319 319 318 319 321 322 321 320 320 322 322 323 321 318 315 314 313 310 310 312 313 313 314 314 314 313 311
258 257 256 256 256 256 257 264 279 291 299 304 310 314 317 319 319 319 319 320 321 323 324 324 325 326 328 327 325 322 318 315 312 310 308 307 308 310 312 312 312 309 310
255 251 248 246 246 246 250 267 280 297 303 307 311 314 316 317 318 318 319 321 323 325 326 328 330 329 328 328 328 326 324 322 316 311 307 306 304 307 308 310 311 308 306
247 245 244 242 239 241 254 273 290 298 301 306 310 313 315 316 319 322 323 324 325 326 329 331 332 333 331 330 329 326 325 325 327 321 312 307 303 301 304 304 305 304 297
Wind_Speed_850mb
47 39 33 22 20 25 28 36 30 24 17 13 11 12 10 15 17 22 24 25 27 29 33 36 38 40 40 41 44 44 46 48 60 74 71 73 70 66 59 59 53 55 56
43 39 39 41 34 31 30 28 20 11 4 2 6 10 15 18 20 21 24 27 29 30 33 36 38 42 43 45 45 45 47 48 56 71 72 74 72 70 71 72 66 60 60
44 41 34 30 29 27 20 15 11 5 2 7 10 12 15 16 17 20 23 27 30 33 38 41 44 47 48 48 48 49 47 49 51 61 71 68 70 69 68 67 67 65 63
35 30 29 25 23 19 16 10 7 3 4 8 12 14 18 22 24 25 26 30 34 38 42 44 46 49 51 51 52 52 54 55 55 60 67 72 71 72 71 74 77 73 72
29 36 32 33 27 20 16 11 5 2 6 11 16 20 23 27 31 34 37 39 42 41 43 45 45 49 52 54 56 53 55 57 59 62 67 71 73 74 76 77 81 81 83
37 35 30 28 22 16 9 6 6 9 13 17 21 25 29 34 39 45 48 48 49 50 51 50 48 49 51 53 54 56 55 58 60 64 67 70 69 68 70 72 76 80 82
31 29 26 22 14 7 5 6 9 12 17 23 27 32 36 41 44 46 47 47 46 47 47 47 45 45 49 50 50 51 48 49 54 55 58 57 63 62 67 71 71 75 80
28 23 17 12 6 3 6 11 16 21 26 30 33 36 38 41 43 44 44 44 42 42 44 46 46 44 48 52 55 54 51 50 51 50 53 57 57 58 58 63 67 75 80
19 13 9 5 4 9 14 18 22 24 26 29 31 32 35 39 41 45 47 46 45 44 44 46 47 47 48 52 56 60 60 56 56 60 60 62 62 60 57 62 66 67 80
12 7 6 7 11 15 19 21 22 22 23 25 27 30 33 35 38 42 45 46 45 44 42 44 48 52 56 56 60 61 64 62 60 62 60 60 60 62 58 57 59 62 66
4 1 6 12 15 15 15 14 13 14 17 21 25 29 32 35 38 42 44 46 48 50 51 49 48 51 54 55 53 56 57 55 57 61 63 63 60 58 56 51 50 55 59
4 7 11 13 11 7 7 12 17 21 26 28 30 33 36 38 38 39 41 44 48 51 53 52 51 51 54 55 55 56 57 58 62 64 65 65 65 64 63 57 53 53 56
15 15 11 7 5 7 10 16 23 27 31 35 37 39 41 42 43 45 46 45 46 50 52 55 57 58 58 59 59 60 61 62 64 66 67 68 67 68 66 62 57 54 56
20 16 11 7 5 8 15 19 23 28 33 37 41 44 46 46 46 46 46 48 51 53 56 59 57 59 61 62 63 62 60 59 60 63 65 66 69 70 70 60 61 59 61
22 16 13 11 12 15 19 22 26 31 35 38 43 46 47 46 45 48 52 56 57 55 63 63 67 68 68 66 65 64 63 62 60 60 66 71 70 65 64 66 65 61 63
28 24 21 20 20 22 24 27 30 34 39 41 42 42 44 44 46 50 53 57 61 64 66 67 66 64 64 64 64 65 63 63 63 65 66 65 67 68 64 66 66 66 64
33 31 30 28 28 30 30 32 34 38 38 38 40 41 42 44 48 52 56 60 60 62 60 59 58 58 58 59 60 61 63 61 61 61 60 60 61 60 57 60 67 66 66
41 42 41 39 38 37 37 39 41 40 37 35 36 37 40 45 50 54 57 58 54 53 54 54 56 57 58 60 60 62 62 62 62 61 61 60 56 50 53 52 60 63 62
52 52 51 49 46 44 42 43 43 40 37 37 38 40 42 48 52 55 55 54 53 53 53 54 56 59 60 61 62 63 62 63 62 63 63 62 59 57 60 57 56 57 62
55 59 58 54 51 48 47 46 43 38 35 34 38 42 45 50 53 55 55 55 55 56 57 58 59 60 61 62 64 64 65 65 65 65 65 65 63 63 63 64 62 58 58
53 60 61 58 53 50 48 44 39 34 32 33 38 43 50 52 52 52 51 51 53 55 57 58 59 61 62 63 64 65 66 67 66 66 67 67 66 68 67 65 63 57 50
53 55 58 54 51 48 43 38 33 30 30 33 37 43 47 48 49 48 48 50 50 51 53 57 59 59 60 62 63 65 68 70 70 69 70 69 67 67 66 68 66 60 52
53 52 51 48 45 41 35 31 28 28 31 36 41 44 46 47 46 48 50 51 52 52 52 54 56 58 58 59 59 61 65 67 67 67 70 71 70 69 64 65 63 60 55
48 46 44 41 36 32 28 25 24 28 34 39 42 44 45 46 48 51 52 54 54 54 54 54 55 56 58 59 61 62 63 65 65 66 64 66 67 64 60 62 64 61 58
39 37 34 32 30 27 22 22 29 30 34 39 41 43 45 47 49 51 53 53 53 53 52 51 52 55 57 59 60 60 60 60 60 61 62 61 60 61 63 63 65 63 55
28 29 30 28 25 22 22 25 25 29 35 38 39 42 45 48 50 50 50 50 50 51 50 50 51 53 54 56 58 62 63 64 67 64 59 55 56 59 58 58 60 57 53
Wind_Direction_850mb
181 195 217 240 223 194 225 241 241 243 251 265 287 309 325 327 325 325 321 319 317 312 309 308 304 300 298 296 296 296 296 294 291 295 298 301 303 303 302 299 294 291 288
162 162 162 169 189 203 199 209 210 201 222 351 338 331 334 335 329 324 321 318 317 315 311 308 307 307 307 307 305 303 302 301 300 301 304 305 306 307 305 303 300 300 297
152 161 162 171 162 173 175 155 149 158 48 353 336 329 323 320 316 317 317 313 313 310 308 305 303 301 300 301 302 302 300 299 298 298 301 304 305 307 307 306 305 299 292
161 164 159 161 159 156 154 142 128 80 346 321 314 315 316 314 309 304 301 299 300 303 302 301 303 304 305 306 305 308 310 308 307 305 304 306 309 311 310 310 309 307 302
148 154 161 150 153 151 145 134 107 18 332 320 315 310 306 302 300 300 302 303 304 304 305 308 309 309 309 310 310 309 308 310 310 307 306 307 309 311 310 309 305 305 302
153 146 150 137 137 139 118 75 23 343 324 309 301 300 303 305 306 309 311 314 316 316 316 315 316 313 311 311 311 311 313 312 309 306 304 303 302 302 302 301 302 304 307
141 140 138 132 123 102 59 2 328 313 308 310 315 318 317 316 314 314 314 314 314 313 312 310 309 310 308 308 308 308 309 306 302 301 301 301 301 303 300 298 296 295 293
142 137 123 106 86 36 349 332 328 326 325 322 319 317 314 311 309 307 306 308 311 309 308 308 311 311 310 311 311 310 312 311 308 306 304 305 304 303 297 294 294 293 291
133 122 104 76 4 342 335 330 325 324 318 311 307 306 304 304 308 309 311 312 313 313 314 317 316 318 317 316 315 315 313 310 307 306 306 308 309 309 309 302 296 295 295
117 88 38 350 340 340 334 324 311 306 305 309 314 318 324 326 322 320 320 321 320 317 320 322 323 322 321 321 320 319 316 316 315 311 309 307 307 307 309 308 306 292 294
114 32 342 341 330 305 293 293 308 329 340 347 345 340 337 332 331 330 330 330 329 330 330 329 327 321 318 319 319 318 317 315 310 310 312 311 310 308 308 305 297 293 289
273 291 276 261 263 287 337 357 2 1 356 352 353 349 344 339 335 332 330 329 328 328 327 326 323 323 320 320 320 320 319 316 316 315 315 315 315 314 312 309 301 290 285
242 244 251 274 319 351 359 358 353 351 348 345 347 345 341 337 333 333 330 326 323 324 326 326 327 327 325 323 322 320 318 317 318 318 318 316 314 312 309 308 304 296 287
243 249 260 269 301 327 338 338 338 338 338 336 338 337 335 331 324 322 325 330 330 329 327 329 328 324 323 324 324 323 323 322 321 320 319 318 319 320 319 317 312 310 299
246 253 256 267 285 299 307 319 328 325 325 328 331 329 325 324 329 335 336 335 332 329 325 323 322 323 323 324 326 328 330 329 326 322 319 318 316 314 316 320 318 314 307
239 244 251 262 273 288 301 308 312 316 320 321 318 320 327 331 331 328 326 324 323 322 322 323 325 326 327 328 329 329 329 328 327 324 323 322 319 315 308 310 315 316 312
245 251 259 269 280 286 290 298 307 306 303 305 313 321 323 321 323 323 322 322 324 322 320 322 325 327 329 329 329 329 328 326 325 326 324 323 322 318 314 308 312 312 309
255 258 264 270 276 281 289 291 289 289 295 303 310 315 320 320 320 321 322 322 320 320 325 328 329 330 330 328 328 327 326 326 326 326 325 326 324 318 311 310 309 309 307
258 262 265 269 273 277 281 282 287 293 297 304 313 318 316 317 319 320 320 323 325 326 327 327 328 329 329 328 327 326 324 324 324 324 324 324 324 320 315 309 300 306 310
264 262 264 267 271 275 276 280 284 288 294 303 308 308 308 312 314 317 322 325 326 326 328 328 328 328 327 326 324 322 320 320 321 321 321 321 320 319 316 314 311 303 304
268 262 262 265 269 270 273 278 283 289 296 303 305 310 314 319 320 322 323 323 322 323 324 324 325 325 324 323 323 321 319 319 318 318 317 318 318 316 315 314 314 310 300
267 263 262 263 266 270 273 277 282 287 294 300 306 311 314 317 321 323 322 321 320 321 322 322 322 323 323 323 322 320 319 317 316 314 313 314 315 314 315 315 316 313 308
262 260 259 261 263 265 267 269 274 285 297 305 308 310 313 317 319 319 318 319 321 322 321 320 320 322 322 323 321 318 315 314 313 310 310 312 313 313 314 314 314 313 311
258 257 256 256 256 256 257 264 279 291 299 304 310 314 317 319 319 319 319 320 321 323 324 324 325 326 328 327 325 322 318 315 312 310 308 307 308 310 312 312 312 309 310
255 251 248 246 246 246 250 267 280 297 303 307 311 314 316 317 318 318 319 321 323 325 326 328 330 329 328 328 328 326 324 322 316 311 307 306 304 307 308 310 311 308 306
247 245 244 242 239 241 254 273 290 298 301 306 310 313 315 316 319 322 323 324 325 326 329 331 332 333 331 330 329 326 325 325 327 321 312 307 303 301 304 304 305 304 297